Flag for U.S.A. Weather past 2 weeks in Hereford, Texas, U.S.A.

Now
88 °F

Sunny.


Feels Like: 85 °F
Forecast: 67 / 93 °F
Wind: 12 mph from Southwest

Location: Clovis Municipal

Current Time: Sep 3, 2015 at 12:23:34 PM

Latest Report: Sep 3, 2015 at 11:55 AM


Visibility: 10 mi

Pressure: 30.07 "Hg (26.37 "Hg at 1167m altitude)

Humidity: 29%

Dew point: 52 °F

Location of HerefordLocation

Historic Weather in Hereford — Graph

°F

Hereford temperature yesterday

Maximum temperature yesterday: 95 °F (at 2:55 PM)
Minimum temperature yesterday: 61 °F (at 6:15 AM)
Average temperature yesterday: 77 °F

Past Weeks' High & Low Weather Summary

 TemperatureHumidityPressure
High99 °F (Aug 22, 5:15 PM)100% (Aug 21, 7:35 AM)30.33 "Hg (Aug 21, 7:35 AM)
Low52 °F (Aug 20, 1:15 AM)13% (Aug 22, 7:35 PM)29.92 "Hg (Aug 21, 6:35 PM)
Average74 °F54%30.14 "Hg
* Reported Aug 19 11:15 AM — Sep 3 11:15 AM, Hereford, Weather by CustomWeather, © 2015

Note: Actual official high and low records may vary slightly from our data, if they occured in-between our weather recording intervals... More about our weather records

Advertising

Hereford weather history for previous 24 hours

 ConditionsComfort  
Time TempWeatherWind HumidityBarometerVisibility
11:15 AM
Thu, Sep 3
84 °FSunny.12 mph33%30.08 "Hg10 mi
10:55 AM82 °FSunny.14 mph35%30.08 "Hg10 mi
10:35 AM82 °FSunny.16 mph35%30.08 "Hg10 mi
10:15 AM79 °FSunny.15 mph39%30.08 "Hg10 mi
9:55 AM79 °FSunny.16 mph39%30.08 "Hg10 mi
9:35 AM79 °FSunny.18 mph39%30.08 "Hg10 mi
9:15 AM75 °FSunny.14 mph44%30.08 "Hg10 mi
8:55 AM73 °FSunny.12 mph50%30.09 "Hg10 mi
8:35 AM70 °FSunny.9 mph57%30.09 "Hg10 mi
8:15 AM66 °FClear.9 mph60%30.08 "Hg10 mi
7:55 AM64 °FClear.10 mph64%30.07 "Hg10 mi
7:35 AM64 °FClear.9 mph64%30.08 "Hg10 mi
7:15 AM64 °FClear.10 mph64%30.08 "Hg10 mi
6:55 AM64 °FClear.9 mph64%30.08 "Hg10 mi
6:35 AM64 °FClear.8 mph64%30.07 "Hg10 mi
6:15 AM64 °FClear.9 mph64%30.07 "Hg10 mi
5:55 AM66 °FClear.8 mph60%30.07 "Hg10 mi
5:35 AM66 °FClear.9 mph60%30.07 "Hg10 mi
5:15 AM66 °FClear.9 mph64%30.07 "Hg10 mi
4:55 AM66 °FClear.8 mph64%30.07 "Hg10 mi
4:35 AM68 °FClear.9 mph56%30.07 "Hg10 mi
4:15 AM68 °FPassing clouds.8 mph56%30.08 "Hg10 mi
3:55 AM70 °FPassing clouds.10 mph57%30.08 "Hg10 mi
3:35 AM70 °FOvercast.9 mph57%30.09 "Hg10 mi
3:15 AM72 °FPassing clouds.10 mph53%30.09 "Hg10 mi
2:55 AM72 °FClear.7 mph50%30.09 "Hg10 mi
2:35 AM70 °FClear.10 mph53%30.09 "Hg10 mi
2:15 AM70 °FClear.7 mph53%30.09 "Hg10 mi
1:55 AM70 °FClear.7 mph53%30.09 "Hg10 mi
1:35 AM70 °FClear.7 mph53%30.10 "Hg10 mi
1:15 AM70 °FClear.8 mph53%30.10 "Hg10 mi
12:55 AM72 °FClear.8 mph50%30.09 "Hg10 mi
12:35 AM72 °FClear.8 mph50%30.09 "Hg10 mi
12:15 AM72 °FClear.12 mph50%30.09 "Hg10 mi
11:55 PM
Wed, Sep 2
72 °FClear.9 mph50%30.09 "Hg10 mi
11:35 PM72 °FClear.9 mph50%30.09 "Hg10 mi
10:35 PM75 °FClear.10 mph41%30.09 "Hg10 mi
10:15 PM75 °FClear.10 mph41%30.08 "Hg10 mi
9:55 PM75 °FClear.12 mph39%30.07 "Hg10 mi
9:35 PM77 °FClear.13 mph36%30.06 "Hg10 mi
9:15 PM79 °FSunny.13 mph34%30.05 "Hg10 mi
8:55 PM81 °FSunny.13 mph32%30.04 "Hg10 mi
8:35 PM82 °FSunny.15 mph30%30.04 "Hg10 mi
8:15 PM82 °FSunny.17 mph32%30.03 "Hg10 mi
7:55 PM84 °FSunny.16 mph31%30.03 "Hg10 mi
7:35 PM88 °FSunny.21 mph27%30.02 "Hg10 mi
7:15 PM88 °FSunny.20 mph27%30.02 "Hg10 mi
6:55 PM90 °FSunny.22 mph26%30.02 "Hg10 mi
6:35 PM90 °FSunny.20 mph26%30.02 "Hg10 mi
6:15 PM90 °FSunny.18 mph26%30.02 "Hg10 mi
5:55 PM91 °FSunny.21 mph26%30.03 "Hg10 mi
4:35 PM93 °FPartly sunny.20 mph24%30.04 "Hg10 mi
4:15 PM91 °FPassing clouds.18 mph24%30.05 "Hg10 mi
3:55 PM93 °FScattered clouds.21 mph24%30.06 "Hg10 mi
3:35 PM93 °FScattered clouds.24 mph24%30.07 "Hg10 mi
3:15 PM95 °FPassing clouds.23 mph22%30.08 "Hg10 mi
2:55 PM95 °FSunny.22 mph22%30.08 "Hg10 mi
2:35 PM93 °FSunny.22 mph21%30.09 "Hg10 mi
2:15 PM93 °FSunny.12 mph21%30.10 "Hg10 mi
1:55 PM93 °FSunny.14 mph21%30.10 "Hg10 mi
1:35 PM91 °FSunny.15 mph23%30.11 "Hg10 mi
1:15 PM91 °FSunny.15 mph23%30.12 "Hg10 mi
12:55 PM91 °FSunny.15 mph23%30.13 "Hg10 mi
12:35 PM90 °FSunny.17 mph24%30.13 "Hg10 mi
12:15 PM88 °FSunny.14 mph25%30.14 "Hg10 mi
Weather by CustomWeather, © 2015

See weather overviewHow to use our weather pages